User: anonymous   Login
Location: Chuathbaluk
(61.5726°N, 159.2454°W)
Time: 10:41:02
(UTC+00:00)
Language:

DUCHIFAT 1 - Orbit

View from above orbital plane
View from above orbital plane
View from above satellite
View from above satellite

Ground track
Ground track

The orbit data is extracted from the following two-line orbital elements,

1 40021U 14033M   21017.09217791  .00000560  00000-0  62262-4 0  9998
2 40021  97.9605 315.8256 0011772 308.0742  51.9414 14.91146653357725
Epoch (UTC): 17 January 2021 02:12:44
Eccentricity: 0.0011772
inclination: 97.9605°
perigee height: 586 km
apogee height: 602 km
right ascension of ascending node: 315.8256°
argument of perigee: 308.0742°
revolutions per day: 14.91146653
mean anomaly at epoch: 51.9414°
orbit number at epoch: 35772

The dashed part of the orbit path shows where the satellite is in the earth's shadow,  

DLR